SCP
0 0 0 0 0 0 0 0 0 0 0 0 0 0 0 0 0 0 0 0 0 0 0 0 0 0 1 1 1 1 1 1 1 1 1 1 1 0 0 0 0 0 0 0
0 0 0 0 0 0 0 0 0 0 0 0 0 0 0 0 0 0 0 0 0 0 0 0 0 0 0 1 1 1 1 2 2 2 1 1 1 1 0 0 0 0 0 0
0 0 0 0 0 0 0 0 0 0 0 0 0 0 0 0 0 0 0 0 0 0 0 0 0 0 1 1 2 2 2 2 2 2 2 1 1 1 0 0 0 0 0 0
0 0 0 0 0 0 0 0 0 0 0 0 0 0 0 0 0 0 0 0 0 0 0 0 0 1 1 2 2 3 2 2 3 2 2 2 1 1 1 0 0 0 0 0
0 0 0 0 0 0 0 0 0 0 0 0 0 0 0 0 0 0 0 0 0 0 1 1 1 1 2 3 3 4 4 4 3 3 2 2 1 1 1 0 0 0 0 0
0 0 0 0 0 0 0 0 0 0 0 0 0 0 0 0 0 0 0 0 0 0 1 1 1 2 2 3 4 5 5 4 4 3 2 1 1 1 1 0 0 0 0 0
0 0 0 0 0 0 0 0 0 0 0 0 0 0 0 0 0 0 0 0 0 1 1 1 2 2 2 3 4 4 4 4 4 3 2 1 1 1 0 0 0 0 0 0
0 0 0 0 0 0 0 0 0 0 0 0 0 0 0 0 0 0 0 0 0 1 1 1 1 2 2 3 3 3 4 3 3 2 1 1 0 0 0 0 0 0 0 0
0 0 0 0 0 0 0 0 0 0 0 0 0 0 0 0 0 0 0 0 0 0 1 1 1 1 2 2 3 3 3 3 2 2 1 1 0 0 0 0 0 0 0 0
0 0 0 0 0 0 0 0 0 0 0 0 0 0 0 0 0 0 0 0 0 0 0 0 0 1 1 2 2 3 2 2 1 1 0 0 0 0 0 0 0 0 0 0
0 0 0 0 0 0 0 0 0 0 0 0 0 0 0 0 0 0 0 0 0 0 0 0 0 0 0 1 1 1 1 1 1 0 0 0 0 0 0 0 0 0 0 0
0 0 0 0 0 0 0 0 0 0 0 0 0 0 0 0 0 0 0 0 0 0 0 0 0 0 0 0 0 0 0 0 0 0 0 0 0 0 0 0 0 0 0 0
0 0 0 0 0 0 0 0 0 0 0 0 0 0 0 0 0 0 0 0 0 0 0 0 0 0 0 0 0 0 0 0 0 0 0 0 0 0 0 0 0 0 0 0
0 0 0 0 0 0 0 0 0 0 0 0 0 0 0 0 0 0 0 0 0 0 0 0 0 0 0 0 0 0 0 0 0 0 0 0 0 0 0 0 0 0 0 0
0 0 0 0 0 0 0 0 0 0 0 0 0 0 0 0 0 0 0 0 0 0 0 0 0 0 0 0 0 0 0 0 0 0 0 0 0 0 0 0 0 0 0 0
0 0 0 0 0 0 0 0 0 0 0 0 0 0 0 0 0 0 0 0 0 0 0 0 0 0 0 0 0 0 0 0 0 0 0 0 0 0 0 0 0 0 0 0
0 0 0 0 0 0 0 0 0 0 0 0 0 0 0 0 0 0 0 0 0 0 0 0 0 0 0 0 0 0 0 0 0 0 0 0 0 0 0 0 0 0 0 0
0 0 0 0 0 0 0 0 0 0 0 0 0 0 0 0 0 0 0 0 0 0 0 0 0 0 0 0 0 0 0 0 0 0 0 0 0 0 0 0 0 0 0 0
0 0 0 0 0 0 0 0 0 0 0 0 0 0 0 0 0 0 0 0 0 0 0 0 0 0 0 0 0 0 0 0 0 0 0 0 0 0 0 0 0 0 0 0
0 0 0 0 0 0 0 0 0 0 0 0 0 0 0 0 0 0 0 0 0 0 0 0 0 0 -0 0 0 0 0 0 0 0 0 0 0 0 0 0 0 0 0 0
0 0 0 0 0 0 0 0 0 0 0 0 0 0 0 0 0 0 0 0 0 0 0 0 0 0 0 0 0 0 0 0 0 0 0 0 0 0 0 0 0 0 0 0
0 0 0 0 0 0 0 0 0 0 0 0 0 0 0 0 0 0 0 0 0 0 0 0 0 0 0 0 0 0 0 0 0 0 0 0 0 0 0 0 0 0 0 0
0 0 0 0 0 0 0 0 0 0 0 0 0 0 0 0 0 0 0 0 0 0 0 0 0 0 0 0 0 0 0 0 0 0 0 0 0 0 0 0 0 0 0 0
0 0 0 0 0 0 0 0 0 0 0 0 0 0 0 0 0 0 0 0 0 0 0 0 0 0 0 0 0 0 0 0 0 0 0 0 0 0 0 0 0 0 0 0
0 0 0 0 0 0 0 0 0 0 0 0 0 0 0 0 0 0 0 0 0 0 0 0 0 0 0 0 0 0 0 0 0 0 0 0 0 0 0 0 0 0 0 0
0 0 0 0 0 0 0 0 0 0 0 0 0 0 0 0 0 0 0 0 0 0 0 0 0 0 0 0 0 0 0 0 0 0 0 0 0 0 0 0 0 0 0 0
Wind_Speed
3 4 1 4 4 3 2 2 4 6 3 1 4 6 7 6 7 8 7 7 8 9 10 9 11 12 13 13 13 13 12 10 9 6 6 5 4 4 4 4 5 6 6 7
5 2 4 2 1 2 2 3 5 6 2 2 3 6 3 4 5 6 8 9 10 12 11 9 9 11 15 16 15 14 13 12 11 8 6 3 3 2 2 2 4 5 6 6
1 4 3 2 2 2 3 4 5 5 2 2 2 5 3 4 4 9 10 9 10 12 14 13 9 10 12 14 14 11 12 10 8 7 5 3 3 2 2 3 3 4 5 6
2 3 4 4 3 2 5 5 4 4 1 3 1 4 4 6 7 12 15 15 16 16 15 12 8 7 9 11 9 9 9 9 7 7 6 6 5 4 4 3 2 3 4 5
4 5 6 6 5 3 4 5 2 1 3 1 1 2 5 6 9 13 15 15 16 16 15 12 8 2 3 5 7 8 9 9 8 6 5 4 3 3 1 1 2 3 3 4
4 4 4 3 4 3 4 4 3 4 3 2 3 4 3 4 7 12 14 15 16 16 14 12 10 7 7 7 9 10 11 8 7 6 3 4 4 3 3 2 2 1 1 2
9 6 7 5 7 7 7 5 5 5 2 5 1 3 1 3 6 8 12 14 14 13 12 11 11 9 9 10 9 9 12 8 6 4 2 3 4 4 3 3 2 2 1 1
6 7 6 7 4 4 4 1 2 3 4 3 1 2 2 3 7 7 8 10 12 12 10 9 9 7 9 10 9 8 8 6 3 2 3 3 3 2 2 3 2 3 2 2
3 5 5 5 4 3 5 3 1 2 2 2 2 1 1 8 12 13 13 13 13 12 9 8 6 7 9 9 8 7 6 5 1 1 2 2 3 3 3 3 2 2 2 2
1 4 5 6 6 6 3 2 3 2 2 3 1 2 5 13 17 17 15 15 13 12 9 7 5 6 8 8 7 6 5 3 1 1 2 2 3 3 3 3 3 3 3 2
3 1 6 6 5 5 6 6 4 2 2 1 1 2 6 10 13 14 14 13 12 11 8 6 6 5 6 6 4 3 2 1 0 1 1 3 3 3 3 3 2 2 2 3
2 4 3 4 3 3 2 4 3 2 3 1 0 2 7 10 11 11 13 13 12 10 7 5 5 4 4 4 3 2 1 1 0 2 2 3 3 3 3 2 2 2 3 3
3 5 5 8 7 7 5 6 4 2 1 2 1 2 7 11 13 14 15 14 12 11 9 6 5 5 4 3 2 3 3 2 1 2 3 3 2 2 2 1 1 1 2 2
6 6 4 2 4 6 7 10 9 4 2 3 4 5 11 17 17 17 16 15 12 12 10 9 6 5 4 3 2 2 3 1 2 3 4 3 2 1 0 0 0 1 2 3
6 5 4 3 3 6 10 13 13 11 8 5 5 6 11 15 14 13 13 13 14 14 13 12 9 7 7 7 6 5 4 3 3 4 4 3 2 2 2 2 2 1 1 2
4 4 3 1 1 5 10 15 13 11 9 8 7 7 12 13 10 12 13 14 14 13 12 11 11 10 9 9 8 8 7 7 7 7 6 5 5 5 5 4 4 3 2 2
3 4 3 0 3 2 7 10 9 6 8 7 7 8 14 13 14 12 12 14 13 12 10 10 9 8 8 7 7 8 7 7 8 8 7 7 7 6 6 6 5 4 3 2
4 4 3 2 3 4 3 3 4 3 5 7 7 9 12 12 11 6 7 10 12 10 8 8 7 7 7 7 7 7 7 8 8 7 7 7 7 6 6 6 6 5 3 3
3 5 4 3 3 1 2 2 3 3 3 5 7 10 12 14 7 5 9 11 9 7 5 4 4 4 5 6 6 6 7 7 7 7 7 6 6 6 7 7 6 4 4 4
6 5 5 3 3 2 3 2 1 1 2 4 5 8 10 10 7 7 13 13 11 7 4 4 4 5 6 6 5 6 6 6 6 6 5 5 6 6 7 6 5 4 4 4
4 5 4 3 2 3 4 2 1 1 2 5 5 5 6 4 4 10 13 10 7 6 4 4 5 5 5 5 5 6 5 5 4 4 5 6 6 6 6 6 5 5 5 5
3 2 2 3 2 5 3 2 3 4 3 3 4 4 5 7 8 8 8 8 8 6 5 4 4 4 4 4 4 5 4 4 3 4 5 6 6 6 6 7 7 7 7 7
5 6 5 6 6 5 3 4 3 3 2 3 3 5 5 6 6 8 8 8 7 6 5 3 3 4 4 3 3 3 4 3 3 4 4 4 5 5 6 7 7 7 7 6
3 3 4 2 4 4 3 3 3 3 4 5 5 6 4 5 6 7 7 7 7 7 5 4 3 3 4 3 2 2 2 1 2 3 3 3 4 4 5 5 5 6 6 6
6 6 4 3 4 2 4 4 4 3 3 4 4 3 3 4 5 5 6 7 6 6 5 4 3 4 4 3 2 1 0 1 2 1 2 2 2 2 3 4 4 4 4 5
6 9 8 8 8 7 6 5 4 3 2 2 3 4 4 3 5 5 6 5 5 6 5 5 5 5 5 4 3 2 2 2 1 0 1 2 2 1 1 1 2 3 3 6
Wind_Direction
32 54 314 257 217 215 208 222 255 260 261 250 260 275 299 340 14 4 352 336 318 297 279 259 235 223 217 211 203 197 193 182 170 166 171 180 200 198 199 199 198 197 196 194
30 326 272 277 230 196 211 245 263 278 287 226 274 283 316 25 33 11 358 346 332 321 311 288 251 224 215 210 205 197 193 184 180 181 170 161 155 175 190 189 195 195 193 191
229 278 332 28 1 306 257 230 246 259 327 23 332 314 347 358 12 9 5 351 342 333 320 304 274 234 216 210 204 194 186 178 173 161 136 110 100 100 151 195 203 197 190 191
351 350 31 34 4 335 284 281 259 257 262 282 14 288 307 340 349 1 357 352 345 337 329 316 292 248 216 206 187 168 158 149 147 149 161 167 180 193 206 195 194 189 192 194
344 11 38 25 338 338 288 322 331 274 192 254 293 220 297 356 355 346 345 345 343 340 339 336 331 297 190 170 141 131 126 124 129 143 165 184 196 192 155 152 180 190 191 197
352 1 42 352 331 351 340 4 24 42 85 236 230 183 307 9 342 330 336 342 343 344 348 354 6 31 54 76 98 108 104 100 110 118 151 191 197 177 158 170 177 184 184 195
345 359 4 3 1 359 25 35 359 343 2 246 250 147 136 357 341 330 331 337 341 344 352 3 12 31 47 58 71 86 92 84 84 105 168 192 188 172 175 180 187 181 186 204
5 330 359 7 9 330 339 82 195 251 245 281 322 166 145 6 342 335 334 334 342 347 351 3 14 38 51 50 55 68 86 95 104 160 183 175 157 154 170 180 177 183 189 200
356 295 336 1 2 29 357 346 259 232 266 261 269 87 66 358 355 349 347 347 346 345 350 0 16 45 61 57 46 50 68 72 74 184 153 153 156 157 165 164 157 160 164 162
88 293 315 328 16 23 32 323 22 16 262 247 253 68 1 348 344 341 343 342 338 340 348 2 22 48 57 56 44 37 41 50 296 190 167 152 151 149 145 141 151 152 146 134
60 43 322 6 28 346 357 6 1 301 252 235 207 72 17 343 334 333 336 337 338 343 349 4 26 35 53 55 49 33 32 33 171 152 136 123 127 129 128 133 147 150 147 149
69 94 333 315 330 8 31 355 335 319 312 312 136 74 10 342 337 341 344 348 349 350 354 11 28 30 45 38 14 317 296 300 175 137 124 120 116 116 122 128 136 153 164 168
74 68 9 349 356 5 5 350 332 281 285 341 36 29 359 353 360 1 358 355 357 1 9 17 19 13 13 357 310 275 271 254 202 137 129 122 115 124 140 147 148 172 180 183
91 75 89 24 341 346 352 1 9 20 27 30 26 5 359 0 357 356 357 357 6 17 22 28 24 12 6 0 338 299 295 263 160 128 120 109 96 102 170 246 219 224 211 203
77 91 92 97 73 46 33 22 26 36 34 39 20 13 359 347 343 349 355 1 15 23 27 29 27 25 24 26 24 23 19 33 79 88 77 59 44 35 16 357 329 303 267 238
61 115 134 159 247 36 35 21 21 24 17 17 18 13 344 334 343 356 3 5 11 16 21 24 27 28 27 29 29 36 42 45 61 65 54 37 33 33 21 9 3 353 327 287
59 114 116 326 311 7 21 2 7 21 25 12 9 340 332 341 346 350 356 0 2 3 8 15 18 19 20 24 30 37 39 47 54 54 46 35 31 27 17 13 14 3 345 335
110 95 103 85 53 51 289 298 342 356 31 16 354 342 343 335 319 317 360 360 352 350 355 360 4 10 13 21 28 33 37 42 47 45 39 29 25 21 11 12 8 354 347 344
93 121 103 97 95 94 316 354 359 350 353 359 346 343 344 336 330 347 357 353 338 332 335 342 355 6 14 18 19 37 34 33 38 33 25 16 16 14 10 6 355 348 348 348
49 71 96 99 115 195 254 294 323 222 331 336 341 336 339 353 17 332 331 332 328 333 339 353 1 15 18 6 12 36 27 27 22 15 12 11 15 17 11 1 354 349 350 352
25 35 69 102 131 253 249 279 124 144 262 306 315 314 324 334 266 283 307 318 324 328 340 1 12 12 359 354 16 28 21 12 356 7 21 22 18 18 15 9 8 5 9 19
156 133 151 133 150 245 237 149 170 210 246 282 288 293 300 292 291 304 319 334 342 343 343 358 4 353 346 356 16 18 5 347 5 29 34 28 22 23 20 21 20 20 21 27
183 186 183 184 208 231 213 205 219 194 234 266 270 288 298 302 313 324 330 337 341 341 335 338 345 336 339 353 12 11 343 360 41 44 35 26 26 28 25 28 24 22 22 25
237 147 139 210 252 235 228 240 250 220 227 256 270 283 293 302 311 322 329 335 338 337 334 330 332 328 322 331 348 339 342 65 74 50 27 19 25 27 29 31 27 27 22 19
208 163 162 218 244 232 250 233 238 245 254 276 296 295 302 311 316 317 321 323 325 325 322 321 304 289 287 297 306 300 220 130 92 48 18 14 21 30 34 36 31 26 27 20
192 169 171 207 203 182 214 218 215 221 252 282 308 322 326 319 311 314 313 311 315 317 317 318 305 284 278 275 271 262 221 183 157 35 0 357 0 16 35 29 23 27 26 27